Regional Weather Roundup
Issued by NWS

Home | Current Version | Previous Version | Text Only | Print | Product List | Glossary Off
Versions: 1 2 3 4 5 6 7 8 9 10 11 12 13 14 15 16 17 18 19 20 21 22 23 24 25 26 27 28 29 30 31 32 33 34 35 36 37 38 39 40 41 42 43 44 45 46 47 48 49 50

000
ASUS43 KDTX 221210
RWRMI
MICHIGAN HOURLY REGIONAL WEATHER ROUNDUP
NATIONAL WEATHER SERVICE DETROIT/PONTIAC MI
800 AM EDT WED OCT 22 2014

NOTE: "FAIR" INDICATES FEW OR NO CLOUDS BELOW 12,000 FEET WITH NO
SIGNIFICANT WEATHER AND/OR OBSTRUCTION TO VISIBILITY.

MIZ047>049-052>055-059>063-066>070-074>076-081>083-221300-
SOUTHEAST LOWER MICHIGAN

CITY           SKY/WX    TMP DP  RH WIND       PRES   REMARKS
ADRIAN         CLOUDY    43  37  79 N9        30.30R
6HR MIN TEMP:  42; 6HR MAX TEMP:  43;

ALMA           CLOUDY    40  36  84 CALM      30.35R
ANN ARBOR      CLOUDY    44  36  73 N8        30.29R
BAD AXE        CLOUDY    44  40  86 N7        30.33R
6HR MIN TEMP:  43; 6HR MAX TEMP:  44;

CARO           CLOUDY    44  38  82 CALM      30.32R
DETROIT CITY   CLOUDY    47  38  71 N10       30.30R
6HR MIN TEMP:  47; 6HR MAX TEMP:  48;

DETROIT        CLOUDY    46  39  76 N9        30.29R
6HR MIN TEMP:  45; 6HR MAX TEMP:  46;

FLINT          CLOUDY    45  37  73 N12       30.32R
6HR MIN TEMP:  42; 6HR MAX TEMP:  45;

GROSSE ILE     CLOUDY    46  39  76 N10       30.27R
HILLSDALE      CLOUDY    40  38  91 N3        30.30R
6HR MIN TEMP:  38; 6HR MAX TEMP:  41;

HOWELL         CLOUDY    41  37  86 NW5       30.30R
6HR MIN TEMP:  40; 6HR MAX TEMP:  42;


CITY           SKY/WX    TMP DP  RH WIND       PRES   REMARKS
JACKSON        CLOUDY    40  36  86 N7        30.31R
6HR MIN TEMP:  35; 6HR MAX TEMP:  40;

LAMBERTVILLE   CLOUDY    45  37  76 N7        30.29R
LANSING        CLOUDY    40  35  83 NW3       30.34R
6HR MIN TEMP:  37; 6HR MAX TEMP:  40;

LAPEER         CLOUDY    43  38  83 N5        30.31R
MASON          CLOUDY    40  37  87 N5        30.32R
MONROE         CLOUDY    45  39  81 N3        30.28R
MT. CLEMENS    CLOUDY    45  39  79 N13       30.26R
6HR MIN TEMP:  45; 6HR MAX TEMP:  46;

PONTIAC        CLOUDY    43  37  79 N14G20    30.29R
6HR MIN TEMP:  43; 6HR MAX TEMP:  43;

PORT HOPE        N/A     46  39  76 N8        30.31R
6HR MIN TEMP:  45; 6HR MAX TEMP:  46;

PORT HURON     CLOUDY    45  39  81 N5        30.29R
TRI CITIES     CLOUDY    43  36  76 N9        30.35R
6HR MIN TEMP:  42; 6HR MAX TEMP:  43;

TROY           CLOUDY    46  38  76 N6        30.31R
SAGINAW HB     CLOUDY    43  37  81 NW9       30.33R
$$
MIZ043>046-050>051-056>058-064>065-071>073-077>080-221300-
SOUTHWEST LOWER MICHIGAN

CITY           SKY/WX    TMP DP  RH WIND       PRES   REMARKS
BATTLE CREEK   CLOUDY    36  33  89 CALM      30.34R
6HR MIN TEMP:  33; 6HR MAX TEMP:  36;

BENTON HARBOR  CLEAR     28  28 100 E5        30.34R WCI  23
6HR MIN TEMP:  26; 6HR MAX TEMP:  34;

BIG RAPIDS     CLEAR     28  28 100 CALM      30.35R
6HR MIN TEMP:  27; 6HR MAX TEMP:  31;

COLDWATER      CLOUDY    39  37  92 NW5       30.32R
6HR MIN TEMP:  36; 6HR MAX TEMP:  39;

FREMONT        FAIR      31  30  96 CALM      30.35S
HOLLAND        CLEAR     32  28  85 CALM      30.36R
6HR MIN TEMP:  32; 6HR MAX TEMP:  39;

GRAND RAPIDS   PTCLDY    33  29  85 CALM      30.35R
6HR MIN TEMP:  30; 6HR MAX TEMP:  36;

IONIA          CLOUDY    36  34  91 CALM      30.34R
KALAMAZOO      CLEAR     31  29  92 CALM      30.33S
6HR MIN TEMP:  30; 6HR MAX TEMP:  34;

LUDINGTON      PTCLDY    27  26  96 CALM      30.38R
6HR MIN TEMP:  24; 6HR MAX TEMP:  30;

MARSHALL       CLOUDY    37  35  92 CALM      30.32R
MOUNT PLEASANT CLOUDY    40  35  82 CALM      30.35R
6HR MIN TEMP:  33; 6HR MAX TEMP:  40;

MUSKEGON       CLEAR     30  26  85 CALM      30.36R
6HR MIN TEMP:  29; 6HR MAX TEMP:  37;

SOUTH HAVEN    CLEAR     32  31  97 E3        30.35R
$$
MIZ016>042-221300-
NORTHERN LOWER MICHIGAN

CITY           SKY/WX    TMP DP  RH WIND       PRES   REMARKS
ALPENA         CLOUDY    40  34  79 N5        30.37R
6HR MIN TEMP:  39; 6HR MAX TEMP:  41;

BEAVER ISLAND  CLEAR     29  29  99 CALM      30.38S FOG
6HR MIN TEMP:  28; 6HR MAX TEMP:  37;

BELLAIRE       PTCLDY    26  25  94 CALM      30.40S
CADILLAC       CLOUDY    27  26  96 CALM      30.34S
CHARLEVOIX     CLEAR     31  31 100 CALM      30.41S
6HR MIN TEMP:  30; 6HR MAX TEMP:  39;

FRANKFORT      PTCLDY    27  24  89 CALM      30.38S
GAYLORD        CLOUDY    33  29  85 CALM      30.37R
6HR MIN TEMP:  24; 6HR MAX TEMP:  33;

GRAYLING       CLOUDY    35  32  89 E3        30.38R
6HR MIN TEMP:  24; 6HR MAX TEMP:  35;

HARBOR SPRINGS PTCLDY    31  28  91 CALM      30.39S
HOUGHTON LAKE  CLOUDY    36  32  85 NE3       30.36R
6HR MIN TEMP:  26; 6HR MAX TEMP:  36;

MANISTEE       PTCLDY    27  25  93 SE3       30.38R
OSCODA         CLOUDY    42  37  82 N6        30.34R
PELLSTON       MOCLDY    27  25  92 CALM      30.39S
6HR MIN TEMP:  22; 6HR MAX TEMP:  29;

TRAVERSE CITY  CLEAR     27  24  89 CALM      30.38R
6HR MIN TEMP:  27; 6HR MAX TEMP:  31;

$$
MIZ007>008-015-221300-
EASTERN UPPER MICHIGAN

CITY           SKY/WX    TMP DP  RH WIND       PRES   REMARKS
KINROSS        PTCLDY    28  27  93 CALM      30.40R
6HR MIN TEMP:  27; 6HR MAX TEMP:  34;

MACKINAC ISLAN MOCLDY    34  32  94 E3        30.39R
6HR MIN TEMP:  34; 6HR MAX TEMP:  39;

NEWBERRY       PTCLDY    28  26  96 CALM      30.38S
S. S. MARIE    PTCLDY    28  24  85 CALM      30.39S
6HR MIN TEMP:  27; 6HR MAX TEMP:  32;

MUNISING         N/A     31  27  85 SW3       30.37R
6HR MIN TEMP:  28; 6HR MAX TEMP:  33;

$$
MIZ004>006-011>014-085-221300-
CENTRAL UPPER MICHIGAN

CITY           SKY/WX    TMP DP  RH WIND       PRES   REMARKS
MANISTIQUE     MOCLDY    26  25  97 CALM      30.37R
ESCANABA       MOCLDY    28  25  86 CALM      30.36S
6HR MIN TEMP:  27; 6HR MAX TEMP:  28;

MENOMINEE      PTCLDY    28  27  93 CALM      30.36R
6HR MIN TEMP:  28; 6HR MAX TEMP:  34;

SAWYER-GWINN   FOG       25  23  93 CALM      30.34S VSB 1/4
$$
MIZ001>003-009>011-084-221300-
WESTERN UPPER MICHIGAN

CITY           SKY/WX    TMP DP  RH WIND       PRES   REMARKS
IRON MOUNTAIN  FOG       28  27  96 CALM      30.34S VSB 1/4
6HR MIN TEMP:  22; 6HR MAX TEMP:  28;

HOUGHTON       CLEAR     29  26  89 CALM      30.31R
6HR MIN TEMP:  29; 6HR MAX TEMP:  34;

COPPER HARBOR    N/A     39  32  76 SW9G17    30.32R WCI  33
6HR MIN TEMP:  39; 6HR MAX TEMP:  41;

IRONWOOD       CLEAR     37  32  81 S7        30.26R WCI  32
6HR MIN TEMP:  37; 6HR MAX TEMP:  39;

$$

ABBREVIATIONS USED IN REMARKS
   TC - TEMPERATURE IN CELSIUS
  WCI - WIND CHILL INDEX
   HX - HEAT INDEX
  VSB - VISIBILITY




USA.gov is the U.S. government's official web portal to all federal, state and local government web resources and services.